This is the latest recevied weather packets stored in our database for station/object DL5ARK. If no packets are shown the sender has not sent any weather packets the latest 1 day(s).
| Time | Temp. | Humidity | Pressure | Rain* | Wind** | Luminosity | Snow |
|---|---|---|---|---|---|---|---|
| 1778001887 | 15° C | 73% | 991.9 hPa | 0 mm | 3.58 m/s, 337° | - | - |
| 1778001707 | 15.56° C | 73% | 991.9 hPa | 0 mm | 3.58 m/s, 67° | - | - |
| 1778001527 | 15.56° C | 73% | 991.9 hPa | 0 mm | 0.89 m/s, 337° | - | - |
| 1778001347 | 15.56° C | 72% | 991.9 hPa | 0 mm | 1.79 m/s, 22° | - | - |
| 1778001170 | 16.11° C | 72% | 991.9 hPa | 0 mm | 5.36 m/s, 0° | - | - |
| 1778000987 | 16.11° C | 72% | 991.9 hPa | 0 mm | 1.79 m/s, 0° | - | - |
| 1778000807 | 16.11° C | 71% | 991.9 hPa | 0 mm | 5.81 m/s, 0° | - | - |
| 1778000627 | 16.11° C | 70% | 991.9 hPa | 0 mm | 2.24 m/s, 22° | - | - |
| 1778000448 | 16.67° C | 70% | 991.9 hPa | 0 mm | 0.89 m/s, 337° | - | - |
| 1777999908 | 16.67° C | 70% | 991.9 hPa | 0 mm | 1.34 m/s, 67° | - | - |
| 1777999727 | 16.67° C | 70% | 991.9 hPa | 0 mm | 4.47 m/s, 337° | - | - |
| 1777999367 | 16.67° C | 69% | 991.9 hPa | 0 mm | 1.79 m/s, 0° | - | - |
| 1777999187 | 16.67° C | 68% | 991.9 hPa | 0 mm | 0.89 m/s, 45° | - | - |
| 1777999007 | 16.67° C | 69% | 991.9 hPa | 0 mm | 1.79 m/s, 22° | - | - |
| 1777998828 | 17.22° C | 68% | 992.1 hPa | 0 mm | 1.34 m/s, 45° | - | - |
| 1777998648 | 17.22° C | 68% | 992.1 hPa | 0 mm | 0.45 m/s, 22° | - | - |
| 1777998287 | 17.22° C | 67% | 992.1 hPa | 0 mm | 0.45 m/s, 22° | - | - |
| 1777998107 | 17.22° C | 67% | 992.4 hPa | 0 mm | 0.89 m/s, 90° | - | - |
| 1777997928 | 17.22° C | 67% | 992.4 hPa | 0 mm | 1.34 m/s, 337° | - | - |
| 1777997748 | 17.22° C | 67% | 992.1 hPa | 0 mm | 2.24 m/s, 337° | - | - |
| 1777997567 | 17.22° C | 67% | 992.1 hPa | 0 mm | 4.47 m/s, 22° | - | - |
| 1777997390 | 17.22° C | 66% | 992.4 hPa | 0 mm | 1.34 m/s, 22° | - | - |
| 1777997207 | 17.78° C | 65% | 992.4 hPa | 0 mm | 1.79 m/s, 67° | - | - |
| 1777997027 | 17.78° C | 65% | 992.4 hPa | 0 mm | 0.45 m/s, 67° | - | - |
| 1777996848 | 17.78° C | 65% | 992.4 hPa | 0 mm | 0.45 m/s, 45° | - | - |
* Rain latest hour (hover to see other rain measurements)
** Current wind speed in m/s (hover to see current wind gust speed)